Simultaneous Nadir Overpasses (SNOs) Predictions

Prediction of SNOs between GOES-15 and METOP-B Satellite Orbit:

Table of predicted SNOs for the next 14.0 days since TLE Epoch: 9/13/2019
Index Date Time (GOES-15) GOES-15 Lat,Lon METOP-B Lat,Lon Distance(km) Time Diff (sec)
1 09/14/2019 17:52:59 -0.22,-128.14 -0.77,-125.64 283.81 80
2 09/16/2019 06:09:19 0.25,-128.05 -0.26,-130.24 249.90 80
3 09/17/2019 05:51:20 0.23,-128.02 0.86,-125.25 316.57 80
4 09/18/2019 18:07:31 -0.25,-128.02 0.14,-129.81 203.49 80
5 09/19/2019 17:49:31 -0.24,-127.99 -0.92,-124.80 362.96 80
6 09/21/2019 06:05:51 0.26,-127.90 -0.10,-129.40 171.43 80
7 09/22/2019 05:47:52 0.24,-127.86 1.02,-124.41 394.08 80
8 09/23/2019 18:04:03 -0.26,-127.84 -0.02,-128.97 127.95 80
9 09/24/2019 17:46:02 -0.24,-127.81 -1.08,-123.96 437.51 80
10 09/26/2019 06:02:23 0.26,-127.71 0.07,-128.56 97.48 80
11 09/27/2019 05:44:23 0.25,-127.66 1.19,-123.57 467.31 80




NCC Satellite Simultaneous Nadir Overpasses (SNOs) Prediction Service
